Flag for British Virgin Islands Weather past 2 weeks in Road Town, Tortola, British Virgin Islands

Now
81 °F

Passing clouds.


Feels Like: 86 °F
Forecast: 80 / 83 °F
Wind: 7 mph from Southeast

Location: Beef Island - Tortola

Current Time: Aug 29, 2014 at 12:10:27 AM

Latest Report: Aug 28, 2014 at 10:00 PM


Visibility: 6 mi

Pressure: 30.04 "Hg

Humidity: 84%

Dew point: 75 °F

Location of Road TownLocation

Historic Weather in Road Town — Graph

°F

Road Town temperature yesterday

Maximum temperature yesterday: 88 °F (at 11:00 AM)
Minimum temperature yesterday: 79 °F (at 9:00 PM)
Average temperature yesterday: 85 °F

Past Weeks' High & Low Weather Summary

 TemperatureHumidityPressure
High102 °F (Aug 26, 7:00 PM)100% (Aug 24, 8:00 AM)30.09 "Hg (Aug 24, 8:00 AM)
Low77 °F (Aug 16, 11:00 AM)45% (Aug 26, 7:00 PM)29.83 "Hg (Aug 22, 7:00 AM)
Average85 °F77%29.98 "Hg
* Reported Aug 13 10:00 PM — Aug 28 10:00 PM, Road Town, Weather by CustomWeather, © 2014

Note: Actual official high and low records may vary slightly from our data, if they occured in-between our weather recording intervals... More about our weather records

Advertising

Road Town weather history for previous 24 hours

 ConditionsComfort  
Time TempWeatherWind HumidityBarometerVisibility
10:00 PM
Aug 28
81 °FPassing clouds.7 mph84%30.04 "Hg6 mi
9:00 PM79 °FPassing clouds.9 mph84%30.01 "Hg6 mi
8:00 PM82 °FPassing clouds.12 mph79%30.01 "HgN/A
7:00 PM82 °FPassing clouds.9 mph79%29.98 "HgN/A
6:00 PM84 °FScattered clouds.12 mph74%29.98 "HgN/A
5:00 PM86 °FScattered clouds.12 mph70%29.98 "HgN/A
4:00 PM86 °FScattered clouds.12 mph70%29.95 "HgN/A
3:00 PM88 °FScattered clouds.12 mph66%29.95 "HgN/A
2:10 PM88 °FPartly sunny.14 mph70%29.98 "HgN/A
1:00 PM88 °FPartly sunny.14 mph66%29.98 "HgN/A
12:00 PM88 °FPartly sunny.16 mph66%30.01 "HgN/A
11:00 AM88 °FPartly sunny.15 mph66%30.01 "HgN/A
10:00 AM86 °FPartly sunny.15 mph100%30.01 "HgN/A
9:00 AM84 °FPartly sunny.17 mph74%30.01 "HgN/A
8:00 AM84 °FPartly sunny.15 mph74%29.98 "HgN/A
7:00 AM82 °FBroken clouds.13 mph79%29.98 "Hg4 mi
Weather by CustomWeather, © 2014

See weather overviewHow to use our weather pages